This is the latest recevied weather packets stored in our database for station/object E23XBQ-1. If no packets are shown the sender has not sent any weather packets the latest 1 day(s).
| Time | Temp. | Humidity | Pressure | Rain* | Wind** | Luminosity | Snow |
|---|---|---|---|---|---|---|---|
| 1778018538 | 25.56° C | 99% | 971 hPa | - | 0 m/s | 0 W/m² | - |
| 1778017914 | 25.56° C | 99% | 971 hPa | - | 0 m/s | 0 W/m² | - |
| 1778017290 | 25° C | 99% | 971 hPa | - | 0 m/s | 0 W/m² | - |
| 1778016665 | 25.56° C | 99% | 971 hPa | - | 0 m/s | 0 W/m² | - |
| 1778016041 | 25.56° C | 99% | 971 hPa | - | 0 m/s | 0 W/m² | - |
| 1778015416 | 25.56° C | 99% | 971 hPa | - | 0 m/s | 0 W/m² | - |
| 1778014791 | 25.56° C | 99% | 971 hPa | - | 0 m/s | 0 W/m² | - |
| 1778014167 | 25.56° C | 99% | 971 hPa | - | 0 m/s | 0 W/m² | - |
| 1778013542 | 25.56° C | 99% | 971 hPa | - | 0 m/s | 0 W/m² | - |
| 1778012917 | 25.56° C | 99% | 971 hPa | - | 0 m/s | 0 W/m² | - |
| 1778012293 | 25.56° C | 99% | 971 hPa | - | 0 m/s | 0 W/m² | - |
| 1778011668 | 25.56° C | 96% | 971 hPa | - | 0 m/s | 0 W/m² | - |
| 1778011044 | 25.56° C | 99% | 971 hPa | - | 0 m/s | 0 W/m² | - |
| 1778010420 | 25.56° C | 99% | 971 hPa | - | 0 m/s | 0 W/m² | - |
| 1778009795 | 25.56° C | 99% | 971 hPa | - | 0 m/s | 0 W/m² | - |
| 1778009169 | 26.11° C | 99% | 971 hPa | - | 0 m/s | 0 W/m² | - |
| 1778008545 | 26.11° C | 90% | 971 hPa | - | 0 m/s | 0 W/m² | - |
| 1778007919 | 26.11° C | 91% | 971 hPa | - | 0 m/s | 0 W/m² | - |
| 1778007295 | 26.11° C | 99% | 972 hPa | - | 0 m/s | 0 W/m² | - |
| 1778006670 | 26.11° C | 99% | 972 hPa | - | 0 m/s | 0 W/m² | - |
| 1778006045 | 26.11° C | 99% | 972 hPa | - | 0 m/s | 0 W/m² | - |
| 1778005421 | 26.67° C | 99% | 972 hPa | - | 0 m/s | 0 W/m² | - |
| 1778004796 | 26.67° C | 90% | 972 hPa | - | 0 m/s | 0 W/m² | - |
| 1778004172 | 26.67° C | 83% | 972 hPa | - | 0 m/s | 0 W/m² | - |
| 1778003547 | 27.22° C | 77% | 972 hPa | - | 0 m/s | 0 W/m² | - |
* Rain since midnight (hover to see other rain measurements)
** Current wind speed in m/s (hover to see current wind gust speed)